TimeEST,TemperatureF,Dew PointF,Humidity,Sea Level PressureIn,VisibilityMPH,Wind Direction,Wind SpeedMPH,Gust SpeedMPH,PrecipitationIn,Events,Conditions,WindDirDegrees,DateUTC
12:15 AM,56.8,55.8,96,30.12,0.2,SSE,3.5,-,N/A,Fog,Fog,160,2013-01-13 05:15:00
12:35 AM,56.7,55.6,96,30.12,0.2,Calm,Calm,-,N/A,Fog,Fog,0,2013-01-13 05:35:00
12:55 AM,56.5,55.4,96,30.11,0.2,Calm,Calm,-,N/A,Fog,Fog,0,2013-01-13 05:55:00
1:15 AM,56.3,55.4,97,30.11,0.2,Calm,Calm,-,N/A,Fog,Fog,0,2013-01-13 06:15:00
1:35 AM,55.9,55.0,97,30.11,0.2,SE,3.5,-,N/A,Fog,Fog,140,2013-01-13 06:35:00
1:55 AM,55.8,54.9,97,30.12,0.2,Calm,Calm,-,N/A,Fog,Fog,0,2013-01-13 06:55:00
2:15 AM,55.8,54.9,97,30.12,0.2,Calm,Calm,-,N/A,Fog,Fog,0,2013-01-13 07:15:00
2:35 AM,55.8,54.9,97,30.11,0.2,Calm,Calm,-,N/A,Fog,Fog,0,2013-01-13 07:35:00
2:55 AM,55.6,54.7,97,30.12,0.2,South,3.5,-,N/A,Fog,Fog,170,2013-01-13 07:55:00
3:15 AM,55.6,54.7,97,30.11,0.2,Calm,Calm,-,N/A,Fog,Fog,0,2013-01-13 08:15:00
3:35 AM,55.6,54.7,97,30.10,0.2,SSE,3.5,-,N/A,Fog,Fog,150,2013-01-13 08:35:00
3:55 AM,55.4,54.5,97,30.10,0.2,SSE,3.5,-,N/A,Fog,Fog,160,2013-01-13 08:55:00
4:15 AM,55.4,54.3,96,30.10,0.2,South,3.5,-,N/A,Fog,Fog,170,2013-01-13 09:15:00
4:35 AM,55.2,54.1,96,30.09,0.2,South,4.6,-,N/A,Fog,Fog,170,2013-01-13 09:35:00
4:55 AM,55.0,54.1,97,30.09,0.2,SSE,3.5,-,N/A,Fog,Fog,150,2013-01-13 09:55:00
5:15 AM,55.0,54.1,97,30.09,0.2,SSE,4.6,-,N/A,Fog,Fog,160,2013-01-13 10:15:00
5:35 AM,55.0,54.1,97,30.09,0.2,South,3.5,-,N/A,Fog,Fog,170,2013-01-13 10:35:00
5:55 AM,54.9,54.0,97,30.09,0.2,South,4.6,-,N/A,Fog,Fog,170,2013-01-13 10:55:00
6:15 AM,54.9,54.0,97,30.09,0.2,South,4.6,-,N/A,Fog,Fog,170,2013-01-13 11:15:00
6:35 AM,54.9,54.0,97,30.10,0.2,South,4.6,-,N/A,Fog,Fog,180,2013-01-13 11:35:00
6:55 AM,54.9,54.0,97,30.11,0.2,South,4.6,-,N/A,Fog,Fog,190,2013-01-13 11:55:00
7:15 AM,54.7,53.8,97,30.10,0.2,South,3.5,-,N/A,Fog,Fog,170,2013-01-13 12:15:00
7:35 AM,54.7,53.8,97,30.12,0.2,South,4.6,-,N/A,Fog,Fog,190,2013-01-13 12:35:00
7:55 AM,54.7,53.8,97,30.12,0.2,South,4.6,-,N/A,Fog,Fog,190,2013-01-13 12:55:00
8:15 AM,54.7,53.8,97,30.12,0.2,South,3.5,-,N/A,Fog,Fog,180,2013-01-13 13:15:00
8:35 AM,54.9,54.0,97,30.13,0.2,South,3.5,-,N/A,Fog,Fog,180,2013-01-13 13:35:00
8:55 AM,55.4,54.5,97,30.13,0.2,South,4.6,-,N/A,Fog,Fog,190,2013-01-13 13:55:00
9:15 AM,56.3,55.4,97,30.13,0.2,South,4.6,-,N/A,Fog,Fog,180,2013-01-13 14:15:00
9:35 AM,57.0,55.9,96,30.13,0.2,South,5.8,-,N/A,Fog,Fog,180,2013-01-13 14:35:00
9:55 AM,57.9,57.0,97,30.14,1.0,SSW,5.8,-,N/A,,Overcast,200,2013-01-13 14:55:00
10:15 AM,58.5,57.4,96,30.14,3.0,SSW,6.9,-,N/A,,Overcast,200,2013-01-13 15:15:00
10:35 AM,59.7,58.6,96,30.14,4.0,SSW,6.9,-,N/A,,Overcast,210,2013-01-13 15:35:00
10:55 AM,60.8,59.7,96,30.13,7.0,SSW,8.1,-,N/A,,Scattered Clouds,200,2013-01-13 15:55:00
11:15 AM,61.0,59.9,96,30.12,10.0,SSW,9.2,-,N/A,,Clear,210,2013-01-13 16:15:00
11:35 AM,63.1,62.1,96,30.11,10.0,SW,8.1,-,N/A,,Clear,230,2013-01-13 16:35:00
11:55 AM,66.7,59.7,78,30.09,10.0,SW,6.9,16.1,N/A,,Clear,220,2013-01-13 16:55:00
12:15 PM,69.1,58.6,69,30.09,10.0,SW,11.5,-,N/A,,Clear,230,2013-01-13 17:15:00
12:35 PM,69.8,58.8,68,30.08,10.0,SW,11.5,-,N/A,,Clear,220,2013-01-13 17:35:00
12:55 PM,70.3,58.3,66,30.07,10.0,SW,10.4,-,N/A,,Clear,220,2013-01-13 17:55:00
1:15 PM,71.1,57.9,63,30.07,10.0,SSW,11.5,17.3,N/A,,Clear,210,2013-01-13 18:15:00
1:35 PM,72.5,57.9,60,30.06,10.0,SW,10.4,-,N/A,,Clear,230,2013-01-13 18:35:00
1:55 PM,72.9,58.1,60,30.06,10.0,South,9.2,-,N/A,,Scattered Clouds,190,2013-01-13 18:55:00
2:15 PM,73.0,57.9,59,30.05,10.0,South,9.2,-,N/A,,Mostly Cloudy,190,2013-01-13 19:15:00
2:35 PM,71.2,57.2,61,30.05,10.0,SW,9.2,-,N/A,,Mostly Cloudy,230,2013-01-13 19:35:00
2:55 PM,72.5,57.4,59,30.06,10.0,South,10.4,-,N/A,,Overcast,190,2013-01-13 19:55:00
3:15 PM,71.4,57.2,61,30.06,10.0,South,8.1,-,N/A,,Mostly Cloudy,190,2013-01-13 20:15:00
3:35 PM,71.8,57.6,61,30.07,10.0,South,6.9,-,N/A,,Mostly Cloudy,170,2013-01-13 20:35:00
3:55 PM,71.6,57.4,61,30.07,10.0,South,9.2,-,N/A,,Scattered Clouds,190,2013-01-13 20:55:00
4:15 PM,70.7,57.2,62,30.07,10.0,South,6.9,-,N/A,,Clear,180,2013-01-13 21:15:00
4:35 PM,70.2,57.2,63,30.07,10.0,South,8.1,-,N/A,,Clear,190,2013-01-13 21:35:00
4:55 PM,69.4,57.2,65,30.07,10.0,South,6.9,-,N/A,,Clear,180,2013-01-13 21:55:00
5:15 PM,68.7,56.7,65,30.07,10.0,South,5.8,-,N/A,,Clear,180,2013-01-13 22:15:00
5:35 PM,67.3,56.3,68,30.07,10.0,South,5.8,-,N/A,,Clear,190,2013-01-13 22:35:00
5:55 PM,66.7,56.1,69,30.07,10.0,South,5.8,-,N/A,,Clear,180,2013-01-13 22:55:00
6:15 PM,65.8,55.9,70,30.07,10.0,South,3.5,-,N/A,,Clear,180,2013-01-13 23:15:00
6:35 PM,64.9,56.3,74,30.07,10.0,South,4.6,-,N/A,,Clear,170,2013-01-13 23:35:00
6:55 PM,64.4,56.3,75,30.07,10.0,South,3.5,-,N/A,,Clear,170,2013-01-13 23:55:00
7:15 PM,63.7,56.7,78,30.07,10.0,South,3.5,-,N/A,,Clear,190,2013-01-14 00:15:00
7:35 PM,62.1,56.3,81,30.07,10.0,South,4.6,-,N/A,,Clear,180,2013-01-14 00:35:00
7:55 PM,61.9,56.5,82,30.06,10.0,South,5.8,-,N/A,,Clear,180,2013-01-14 00:55:00
8:15 PM,63.0,56.5,79,30.06,10.0,South,8.1,-,N/A,,Clear,190,2013-01-14 01:15:00
8:35 PM,64.2,56.7,76,30.06,10.0,SSW,9.2,-,N/A,,Clear,200,2013-01-14 01:35:00
8:55 PM,64.0,56.7,77,30.05,10.0,SSW,11.5,-,N/A,,Clear,200,2013-01-14 01:55:00
9:15 PM,64.4,56.7,76,30.05,10.0,SSW,8.1,-,N/A,,Clear,200,2013-01-14 02:15:00
9:35 PM,63.9,56.8,78,30.06,10.0,SSW,9.2,-,N/A,,Clear,200,2013-01-14 02:35:00
9:55 PM,63.5,56.7,78,30.06,10.0,SSW,8.1,-,N/A,,Clear,200,2013-01-14 02:55:00
10:15 PM,63.0,56.7,80,30.07,10.0,SSW,8.1,-,N/A,,Clear,200,2013-01-14 03:15:00
10:35 PM,63.0,56.7,80,30.07,10.0,SSW,9.2,-,N/A,,Clear,210,2013-01-14 03:35:00
10:55 PM,62.6,56.7,81,30.07,10.0,SSW,12.7,-,N/A,,Clear,200,2013-01-14 03:55:00
11:15 PM,62.6,56.8,81,30.07,10.0,SSW,12.7,-,N/A,,Clear,200,2013-01-14 04:15:00
11:35 PM,62.8,56.8,81,30.07,10.0,SSW,12.7,19.6,N/A,,Clear,200,2013-01-14 04:35:00
11:55 PM,62.6,56.8,81,30.07,10.0,SSW,12.7,-,N/A,,Clear,200,2013-01-14 04:55:00